Regional Weather Roundup
Issued by NWS

Home | Current Version | Previous Version | Text Only | Print | Product List | Glossary On
Versions: 1 2 3 4 5 6 7 8 9 10 11 12 13 14 15 16 17 18 19 20 21 22 23 24 25 26 27
000
ASUS44 KBMX 250410
RWRAL

ALABAMA REGIONAL WEATHER ROUNDUP
NATIONAL WEATHER SERVICE BIRMINGHAM AL
1100 PM CDT SUN JUL 24 2016

NOTE: "FAIR" INDICATES FEW OR NO CLOUDS BELOW 12,000 FEET
WITH NO SIGNIFICANT WEATHER AND/OR OBSTRUCTIONS TO VISIBILITY.

THE REMARK "TC" DENOTES TEMPERATURE IN DEGREES CELSIUS.

ALZ001>011-014-016>018-020-250500-
NORTH ALABAMA

CITY           SKY/WX    TMP DP  RH WIND       PRES   REMARKS
MUSCLE SHOALS  CLEAR     77  74  90 CALM      30.02F
HUNTSVILLE     CLEAR     80  71  74 CALM      30.03S
DECATUR        CLEAR     76  75  97 E5        30.02F
HALEYVILLE     FAIR      73  72  96 CALM      30.06S
GADSDEN        CLEAR     77  76  96 NW5       30.04S
$$

ALZ012-013-022-023-030>036-040>044-250500-
WEST CENTRAL ALABAMA

CITY           SKY/WX    TMP DP  RH WIND       PRES   REMARKS
TUSCALOOSA     PTCLDY    79  77  94 W3        30.01R
$$

ALZ015-024>027-033>036-040>044-250500-
CENTRAL ALABAMA

CITY           SKY/WX    TMP DP  RH WIND       PRES   REMARKS
BIRMINGHAM     CLEAR     79  75  87 CALM      30.05F
MONTGOMERY     CLEAR     81  73  76 S3        30.03R
SHELBY CO ARPT CLEAR     79  74  84 CALM      30.04S
MAXWELL AFB    CLEAR     81  73  78 CALM      30.02S
GREENVILLE     FAIR      79  73  82 CALM      30.04R
$$

ALZ019-021-028-029-037-038-045>048-250500-
EAST CENTRAL ALABAMA

CITY           SKY/WX    TMP DP  RH WIND       PRES   REMARKS
ANNISTON       PTCLDY    80  74  81 CALM      30.04F
ALEXANDER CITY CLOUDY    79  77  95 CALM      30.05S
AUBURN         CLEAR     80  71  74 CALM      30.07S
$$

ALZ051>064-250500-
SOUTHWEST ALABAMA

CITY           SKY/WX    TMP DP  RH WIND       PRES   REMARKS
MOBILE         PTCLDY    77  74  90 CALM      30.00F
BROOKLEY FIELD CLEAR     83  77  82 E10       30.00S HX  92
EVERGREEN      CLEAR     75  73  93 CALM      30.03R
$$

ALZ049-050-065>069-250500-
SOUTHEAST ALABAMA

CITY           SKY/WX    TMP DP  RH WIND       PRES   REMARKS
DOTHAN         CLEAR     79  74  84 SW3       30.08S
OZARK          CLEAR     78  74  90 CALM      30.04S
TROY           CLEAR     78  74  87 CALM      30.05R
EUFAULA        FAIR      79  72  79 SW3       30.03S
$$




USA.gov is the U.S. government's official web portal to all federal, state and local government web resources and services.